Location: Hauppauge
(40.8260°N, 73.2030°W)
Time: 10:53:59
(UTC-04:00)

Daily predictions for brighter satellites

Satellite Brightness Start Highest point End
(mag) Time Altitude Azimuth Time Altitude Azimuth Time Altitude Azimuth
Lacrosse 5 2.3 19:52:32 10° NW 19:57:29 51° NE 20:02:24 10° ESE
Iridium 4 Rocket 4.1 19:53:29 10° NNE 19:57:48 31° E 20:01:48 10° SE
Cosmos 2227 Rocket 2.5 19:53:40 10° NNW 19:59:20 76° WSW 20:04:58 10° SSE
Spot 2 Rocket 3.8 19:57:06 10° S 20:02:11 72° WSW 20:07:16 10° NNW
Cosmos 1500 4.0 20:01:55 10° SSE 20:05:13 30° E 20:08:33 10° NNE
SL-24 R/B - RUBIN 2 4.4 20:01:32 10° SSW 20:07:23 87° ESE 20:13:55 10° NNE
Cosmos 1975 2.9 20:03:58 10° S 20:07:58 55° E 20:12:00 10° NNE
CZ-2D R/B 3.5 20:06:00 10° SSE 20:09:46 52° ENE 20:13:34 10° N
Lacrosse 5 rocket 2.4 20:06:53 10° WNW 20:10:19 35° SW 20:13:38 10° SSE
Cosmos 2084 3.3 20:06:29 10° NNW 20:10:34 81° NE 20:14:51 10° SE
Cosmos 1340 4.5 20:08:30 10° NNE 20:10:51 16° ENE 20:12:38 12° E
Cosmos 1937 Rocket 4.1 20:07:52 10° N 20:12:52 41° ENE 20:17:51 10° SE
Envisat 4.4 20:09:26 10° ESE 20:12:56 20° ENE 20:16:34 10° NNE
OTV 4 3.2 20:12:23 10° SW 20:13:13 11° SSW 20:14:03 10° SSW
Cosmos 2297 Rocket 2.3 20:08:23 10° NNW 20:14:03 80° WSW 20:19:42 10° SSE
Centaur D-1A AC-32 4.4 20:14:06 10° SSW 20:14:42 10° SSW 20:15:15 10° S
FengYun 1-2 T 4.4 20:09:58 10° SSE 20:15:37 81° WSW 20:21:15 10° NNW
Cosmos 2082 4.3 20:11:17 10° NNW 20:16:48 58° WSW 20:22:17 10° S
Cosmos 1605 Rocket 4.1 20:11:42 10° S 20:18:02 89° W 20:24:19 10° N
H-2A R/B 4.0 20:17:53 11° E 20:19:23 13° ENE 20:21:10 10° NE
Cosmos 2298 Rocket 4.0 20:15:53 10° NNW 20:21:13 74° ENE 20:26:32 10° SSE
Cosmos 1626 Rocket 3.5 20:17:01 10° N 20:21:25 81° E 20:25:45 10° S
BREEZE-M DEB (TANK) 4.4 20:18:18 10° NW 20:21:25 38° NNE 20:29:06 11° E
Cosmos 220 Rocket 4.2 20:18:53 10° NNW 20:23:06 69° WSW 20:27:16 10° S
USA 186 1.5 20:21:56 10° SSE 20:24:53 59° ENE 20:27:38 10° N
Cosmos 1455 Rocket 4.4 20:21:39 10° SSW 20:25:46 43° WNW 20:29:57 10° N
ALOS 2.3 20:21:17 10° SSE 20:25:57 87° WSW 20:30:40 10° NNW
Cosmos 2100 Rocket 4.2 20:23:43 10° SSE 20:29:41 48° E 20:35:37 10° NNE
Cosmos 1515 3.6 20:26:15 10° N 20:30:06 75° E 20:33:55 10° SSE
OAO 2 Rocket 3.9 20:25:35 10° WSW 20:30:16 42° S 20:33:37 18° ESE
CZ-4 DEB 3.8 20:30:35 21° ESE 20:31:45 28° ENE 20:34:30 10° N
Cosmos 1602 Rocket 3.7 20:27:38 10° N 20:32:05 77° W 20:36:28 10° S
ERS-1 Rocket 3.6 20:28:46 15° SE 20:32:28 37° ENE 20:37:05 10° N
Cosmos 1763 Rocket 3.6 20:39:45 10° S 20:44:38 48° ESE 20:49:30 10° NNE
Cosmos 2061 Rocket 4.0 20:39:49 10° S 20:45:59 59° E 20:52:06 10° NNE
Cosmos 2150 Rocket 4.1 20:40:59 10° NNW 20:46:09 77° WSW 20:51:18 10° SSE
Cosmos 1697 Rocket 2.9 20:41:26 10° SSW 20:47:05 76° WNW 20:52:45 10° NNE
Tiangong 1 1.2 20:45:43 10° WNW 20:48:48 60° SSW 20:49:40 39° SE
Cosmos 1939 Rocket 3.5 20:47:20 27° ESE 20:49:05 40° ENE 20:53:00 10° N
Cosmos 1743 2.7 20:45:43 10° S 20:49:32 58° E 20:53:25 10° NNE
Cosmos 1459 Rocket 3.9 20:47:08 10° S 20:53:07 70° E 20:59:13 10° NNE
Cosmos 1066 Rocket 4.3 20:48:51 10° N 20:54:35 84° W 21:00:24 10° S
Cosmos 1898 Rocket 4.0 20:51:14 10° NNW 20:56:26 59° WSW 21:01:33 10° S
SL-16 R/B 2.9 21:00:04 28° SE 21:01:11 31° ESE 21:06:04 10° NE
Cosmos 1725 Rocket 4.5 20:58:22 24° SE 21:01:16 38° E 21:06:56 10° NNE
Cosmos 1125 Rocket 4.3 20:57:52 10° N 21:02:35 34° ENE 21:03:59 29° E
Cosmos 2058 Rocket 3.6 21:03:44 36° ESE 21:04:31 40° E 21:08:44 10° NNE
Cosmos 1606 Rocket 3.5 21:01:24 18° S 21:04:32 64° E 21:08:56 10° NNE
Cosmos 2098 Rocket 4.1 21:02:47 16° SSE 21:07:57 48° E 21:13:17 10° NNE
BREEZE-M DEB (TANK) 4.0 20:51:49 10° WSW 21:08:30 88° SSE 21:12:09 19° ENE
Cosmos 841 Rocket 3.4 21:04:38 10° S 21:09:50 74° ESE 21:15:03 10° NNE
ASTEX 1 3.8 21:06:46 10° NNE 21:11:32 42° E 21:12:20 39° ESE
Cosmos 1980 Rocket 2.3 21:05:51 10° SSW 21:11:32 79° WNW 21:17:16 10° NNE
RESURS DK-1 3.5 21:12:01 10° NW 21:15:54 40° WSW 21:18:10 21° SSW
Cosmos 1726 Rocket 3.5 21:24:43 31° S 21:26:46 86° W 21:31:13 10° N
Cosmos 1842 3.2 21:24:10 10° N 21:27:49 66° NE 21:27:49 66° NE
Cosmos 1666 2.7 21:29:44 71° NNE 21:29:44 71° NNE 21:33:12 10° N
YAOGAN 6 3.7 21:30:59 35° NNE 21:30:59 35° NNE 21:33:33 10° N
SL-08 R/B 4.4 21:29:48 17° S 21:34:49 87° E 21:41:00 10° N
Cosmos 2263 Rocket 2.9 21:31:05 10° N 21:36:10 35° ENE 21:36:35 35° ENE
Cosmos 332 Rocket 4.5 21:37:52 40° ENE 21:37:52 40° ENE 21:41:19 10° NNE
Lacrosse 5 3.4 21:35:56 10° WNW 21:40:12 28° WSW 21:41:56 23° SSW
Cosmos 2016 Rocket 4.3 21:38:24 10° SSW 21:44:28 66° W 21:50:40 10° N
SL-19 R/B 4.5 21:40:42 10° NNE 21:45:06 47° ENE 21:45:06 47° ENE
Cosmos 2322 Rocket 2.0 21:43:34 32° SSW 21:46:17 79° ESE 21:51:56 10° NNE
Cosmos 1340 4.2 21:43:16 10° NNW 21:46:41 32° W 21:47:32 29° WSW
SPOT 5 2.8 21:47:47 72° S 21:48:17 87° WSW 21:53:04 10° NNW
Envisat 3.7 21:49:38 33° SSW 21:51:34 50° W 21:56:30 10° NNW
MetOp-A 4.0 21:52:04 67° S 21:52:50 88° WSW 21:58:13 10° NNW
H-2A R/B 2.4 21:55:01 56° W 21:55:01 56° W 21:59:00 10° NNW
Cosmos 2228 3.4 21:55:49 57° N 21:55:49 57° N 21:59:18 10° N
Meteor 2-9 Rocket 4.4 21:57:30 31° SSW 22:00:07 63° W 22:05:29 10° N
Terra 3.5 22:03:43 22° NE 22:03:43 22° NE 22:06:08 10° N
Meteor 2-5 Rocket 4.2 21:57:22 10° N 22:02:35 49° ENE 22:02:35 49° ENE
USA 245 4.4 22:06:08 70° SSE 22:06:58 89° ENE 22:13:18 10° NNW
BREEZE-M DEB (TANK) 4.3 22:16:19 10° WNW 22:17:23 25° WNW 22:17:23 25° WNW
Cosmos 2346 Rocket 4.4 22:13:37 10° N 22:19:34 76° NE 22:19:34 76° NE
H-2A R/B 3.0 22:25:29 37° NNE 22:25:29 37° NNE 22:28:37 10° N
Meteor 2-17 Rocket 4.5 22:24:21 68° WSW 22:24:53 72° W 22:30:57 10° N
BREEZE-M DEB (TANK) 4.0 22:12:48 10° WSW 22:25:18 86° NW 22:25:52 74° NE
Cosmos 2278 Rocket 4.5 22:27:26 10° NNE 22:29:36 12° NE 22:29:36 12° NE
USA 215 3.8 22:37:03 46° NE 22:37:44 48° NNE 22:43:57 10° NW
ARGOS 3.7 22:39:04 53° WNW 22:39:04 53° WNW 22:43:40 10° NNW
SL-16 R/B 3.5 22:41:42 20° WSW 22:45:08 38° WNW 22:50:25 10° N
Cosmos 1844 Rocket 4.2 22:42:16 10° N 22:45:36 26° NNE 22:45:36 26° NNE
Cosmos 2360 Rocket 3.5 22:58:32 33° NNE 22:58:32 33° NNE 23:01:34 10° NNE
Cosmos 2263 Rocket 3.9 23:15:06 10° NW 23:18:16 27° WNW 23:18:16 27° WNW
Terra 4.3 23:42:37 17° NW 23:42:37 17° NW 23:44:00 10° NNW
ATLAS 3B R/B 4.3 23:52:25 26° NE 23:52:25 26° NE 23:55:25 10° NE
